Location: T�bingen+AIT
(48.5342°N, 9.0700°E)
Time: 22:35:13
(UTC+01:00)

Resurs 1-3 - Pass Details

Date: 14 September 2017
Orbit: 631 x 632 km, 98.1° (Epoch: 18 November)

Event Time Altitude Azimuth Distance (km) Brightness Sun altitude
Exits shadow 20:40:50 - 158° (SSE) 2,697 6.5 -11.0°
Reaches altitude 10° 20:42:30 10° 157° (SSE) 2,009 5.8 -11.2°
Maximum altitude 20:46:52 72° 73° (ENE) 668 3.5 -11.9°
Drops below altitude 10° 20:51:15 10° 350° (N) 2,026 6.6 -12.6°
Sets 20:53:28 0° 348° (NNW) 2,939 7.5 -12.9°
